Location: Beaver Brook Station
(42.3793°N, 71.2203°W)
Time: 02:01:11
(UTC+00:00)

Meteor 2-10 Rocket - Pass Details

Date: 29 October 2020
Orbit: 734 x 885 km, 81.2° (Epoch: 05 December)

Event Time Altitude Azimuth Distance (km) Brightness Sun altitude
Rises 22:50:07 0° 179° (S) 3,306 6.9 -13.2°
Reaches altitude 10° 22:52:33 10° 176° (S) 2,356 6.1 -13.7°
Maximum altitude 22:57:46 63° 97° (E) 858 3.5 -14.6°
Drops below altitude 10° 23:02:50 10° 16° (NNE) 2,287 5.7 -15.6°
Sets 23:05:10 0° 14° (NNE) 3,201 6.5 -16.0°
